Date String (YYYY-MM-DD hh:mm:ss) UTC,Instrument flags,Ambient pressure (hPa),Sample flow (lpm),Bypass flow (lpm),Sample temperature (°C),Ambient temperature (°C),ASC tube jacket temperature (°C),LED temperature (°C),Box temperature (°C),Sample RH (%),Span deviation,Mass concentration (μg/m³),Mass concentration (μg/m³),Mass concentration (μg/m³)
DateTimeUTC,F1_M11,P_M11,Q1_M11,Q2_M11,T1_M11,T2_M11,T3_M11,T4_M11,T5_M11,U1_M11,ZSPAN_M11,X2_M11,X0_M11,X1_M11
2022-09-05 01:00:00,,0827.0,5.00,0.00,29.5,26.8,00.0,38.1,31.3,17.4,0000.0,0007.14,0013.71,0006.27
2022-09-05 01:01:00,,0827.0,4.99,0.00,29.5,27.1,00.0,38.1,31.2,17.4,0000.0,0007.14,0014.42,0006.28
2022-09-05 01:02:00,,0827.0,5.00,0.00,29.5,27.4,00.0,38.1,31.2,17.2,0000.0,0007.12,0014.75,0006.28
2022-09-05 01:03:00,,0827.0,5.01,0.00,29.5,27.7,00.0,38.1,31.3,16.9,0000.0,0007.10,0015.81,0006.27
2022-09-05 01:04:00,,0827.0,5.01,0.00,29.5,28.0,00.0,38.1,31.4,16.9,0000.0,0007.10,0015.84,0006.26
2022-09-05 01:05:00,,0827.3,4.99,0.00,29.6,28.3,00.0,38.1,31.4,16.7,0000.0,0007.09,0015.81,0006.27
2022-09-05 01:06:00,,0827.0,5.00,0.00,29.6,28.0,00.0,38.2,31.5,16.6,0000.0,0007.08,0015.94,0006.26
2022-09-05 01:07:00,,0827.0,5.00,0.00,29.6,26.9,00.0,38.2,31.3,16.7,0000.0,0007.09,0016.57,0006.27
2022-09-05 01:08:00,,0827.0,5.00,0.00,29.5,26.5,00.0,38.1,31.3,16.7,0000.0,0007.05,0017.50,0006.25
2022-09-05 01:09:00,,0827.0,5.00,0.00,29.5,26.7,00.0,38.1,31.2,16.8,0000.0,0007.02,0017.73,0006.24
2022-09-05 01:10:00,,0827.0,4.99,0.00,29.4,27.0,00.0,38.1,31.1,16.9,0000.0,0007.02,0018.02,0006.24
2022-09-05 01:11:00,,0827.0,5.01,0.00,29.4,27.4,00.0,38.1,31.2,16.9,0000.0,0007.00,0017.35,0006.21
2022-09-05 01:12:00,,0827.1,5.00,0.00,29.5,27.7,00.0,38.1,31.2,16.9,0000.0,0006.99,0018.24,0006.19
2022-09-05 01:13:00,,0827.0,5.01,0.00,29.5,27.9,00.0,38.1,31.3,16.9,0000.0,0007.00,0019.62,0006.18
2022-09-05 01:14:00,,0827.2,4.99,0.00,29.5,28.2,00.0,38.1,31.4,17.0,0000.0,0007.01,0018.29,0006.18
2022-09-05 01:15:00,,0827.1,5.01,0.00,29.6,28.3,00.0,38.1,31.5,17.0,0000.0,0007.04,0017.92,0006.17
2022-09-05 01:16:00,,0827.3,4.99,0.00,29.6,27.5,00.0,38.2,31.5,17.1,0000.0,0007.04,0017.36,0006.18
2022-09-05 01:17:00,,0827.3,5.00,0.00,29.5,26.5,00.0,38.2,31.3,17.2,0000.0,0007.04,0016.77,0006.19
2022-09-05 01:18:00,,0827.1,4.99,0.00,29.5,26.6,00.0,38.1,31.3,17.3,0000.0,0007.02,0016.20,0006.19
2022-09-05 01:19:00,,0827.2,5.00,0.00,29.5,26.9,00.0,38.1,31.2,17.4,0000.0,0007.05,0015.93,0006.19
2022-09-05 01:20:00,,0827.4,5.00,0.00,29.4,27.1,00.0,38.1,31.1,17.6,0000.0,0007.09,0016.18,0006.20
2022-09-05 01:21:00,,0827.6,5.00,0.00,29.4,27.5,00.0,38.1,31.2,17.8,0000.0,0007.10,0016.21,0006.20
2022-09-05 01:22:00,,0827.3,5.01,0.00,29.5,27.8,00.0,38.1,31.3,17.9,0000.0,0007.11,0017.96,0006.20
2022-09-05 01:23:00,,0827.4,5.00,0.00,29.5,28.0,00.0,38.1,31.4,18.0,0000.0,0007.08,0017.87,0006.20
2022-09-05 01:24:00,,0827.3,5.00,0.00,29.5,28.3,00.0,38.1,31.4,18.0,0000.0,0007.09,0015.87,0006.21
2022-09-05 01:25:00,,0827.4,4.98,0.00,29.6,28.1,00.0,38.1,31.5,18.0,0000.0,0007.11,0015.63,0006.20
2022-09-05 01:26:00,,0827.1,5.00,0.00,29.6,26.9,00.0,38.1,31.4,18.0,0000.0,0007.09,0016.45,0006.21
2022-09-05 01:27:00,,0826.9,4.99,0.00,29.5,26.4,00.0,38.1,31.3,18.1,0000.0,0007.09,0016.76,0006.21
2022-09-05 01:28:00,,0827.0,5.00,0.00,29.5,26.6,00.0,38.1,31.2,18.2,0000.0,0007.09,0016.91,0006.20
2022-09-05 01:29:00,,0827.0,5.00,0.00,29.4,26.9,00.0,38.1,31.1,18.2,0000.0,0007.12,0017.00,0006.19
2022-09-05 01:30:00,,0827.1,5.01,0.00,29.4,27.2,00.0,38.0,31.1,18.2,0000.0,0007.14,0016.44,0006.19
2022-09-05 01:31:00,,0827.1,5.00,0.00,29.4,27.5,00.0,38.0,31.2,17.8,0000.0,0007.12,0017.13,0006.19
2022-09-05 01:32:00,,0827.0,5.00,0.00,29.4,27.8,00.0,38.1,31.3,17.6,0000.0,0007.08,0017.99,0006.19
2022-09-05 01:33:00,,0827.1,5.00,0.00,29.5,28.1,00.0,38.1,31.4,17.6,0000.0,0007.04,0016.94,0006.19
2022-09-05 01:34:00,,0827.1,4.99,0.00,29.5,28.3,00.0,38.1,31.4,17.5,0000.0,0007.07,0016.34,0006.20
2022-09-05 01:35:00,,0827.1,5.02,0.00,29.6,28.3,00.0,38.1,31.5,17.7,0000.0,0007.08,0016.59,0006.22
2022-09-05 01:36:00,,0827.3,4.99,0.00,29.6,27.2,00.0,38.1,31.4,17.7,0000.0,0007.14,0017.14,0006.24
2022-09-05 01:37:00,,0827.2,5.00,0.00,29.5,26.4,00.0,38.1,31.3,17.9,0000.0,0007.20,0017.37,0006.25
2022-09-05 01:38:00,,0827.1,5.01,0.00,29.5,26.6,00.0,38.1,31.3,18.1,0000.0,0007.21,0017.25,0006.24
2022-09-05 01:39:00,,0827.4,5.01,0.00,29.4,26.8,00.0,38.1,31.1,18.0,0000.0,0007.21,0017.19,0006.23
2022-09-05 01:40:00,,0827.2,5.00,0.00,29.4,27.2,00.0,38.0,31.1,18.0,0000.0,0007.19,0017.14,0006.24
2022-09-05 01:41:00,,0827.1,5.00,0.00,29.4,27.5,00.0,38.0,31.2,18.0,0000.0,0007.16,0017.06,0006.23
2022-09-05 01:42:00,,0827.2,5.01,0.00,29.4,27.8,00.0,38.1,31.3,17.8,0000.0,0007.13,0016.12,0006.21
2022-09-05 01:43:00,,0827.4,5.00,0.00,29.5,28.0,00.0,38.1,31.4,17.7,0000.0,0007.12,0014.57,0006.20
2022-09-05 01:44:00,,0827.3,4.99,0.00,29.5,28.2,00.0,38.1,31.4,17.8,0000.0,0007.14,0014.72,0006.21
2022-09-05 01:45:00,,0827.1,5.01,0.00,29.6,28.3,00.0,38.1,31.5,17.8,0000.0,0007.14,0014.39,0006.21
2022-09-05 01:46:00,,0827.2,4.99,0.00,29.6,27.2,00.0,38.1,31.4,17.8,0000.0,0007.11,0013.63,0006.20
2022-09-05 01:47:00,,0827.1,5.02,0.00,29.5,26.3,00.0,38.1,31.2,17.9,0000.0,0007.06,0013.56,0006.18
2022-09-05 01:48:00,,0827.1,5.00,0.00,29.4,26.4,00.0,38.1,31.2,17.9,0000.0,0007.03,0012.56,0006.18
2022-09-05 01:49:00,,0827.1,5.00,0.00,29.4,26.6,00.0,38.0,31.0,17.7,0000.0,0007.03,0012.30,0006.19
2022-09-05 01:50:00,,0827.1,4.99,0.00,29.3,27.0,00.0,38.0,31.0,17.5,0000.0,0007.06,0012.90,0006.21
2022-09-05 01:51:00,,0827.1,5.01,0.00,29.3,27.3,00.0,38.0,31.1,17.3,0000.0,0007.07,0014.59,0006.21
2022-09-05 01:52:00,,0827.1,5.00,0.00,29.4,27.6,00.0,38.0,31.2,17.1,0000.0,0007.07,0015.14,0006.22
2022-09-05 01:53:00,,0827.2,5.00,0.00,29.4,27.9,00.0,38.0,31.3,17.0,0000.0,0007.08,0016.33,0006.24
2022-09-05 01:54:00,,0827.1,4.99,0.00,29.5,28.2,00.0,38.1,31.4,17.0,0000.0,0007.08,0016.93,0006.25
2022-09-05 01:55:00,,0827.1,5.00,0.00,29.5,28.3,00.0,38.1,31.4,16.9,0000.0,0007.07,0017.46,0006.25
2022-09-05 01:56:00,,0827.1,5.01,0.00,29.5,28.4,00.0,38.1,31.5,16.8,0000.0,0007.10,0017.39,0006.25
2022-09-05 01:57:00,,0827.1,4.99,0.00,29.6,27.5,00.0,38.1,31.4,16.7,0000.0,0007.09,0017.83,0006.24
2022-09-05 01:58:00,,0827.2,4.99,0.00,29.5,26.3,00.0,38.1,31.3,16.7,0000.0,0007.10,0017.59,0006.24
2022-09-05 01:59:00,,0827.1,4.99,0.00,29.5,26.3,00.0,38.1,31.2,16.6,0000.0,0007.09,0017.62,0006.25
